M I D A S
Marine Information and Data Acquisition System
Tripno 1779 of the Zeeleeuw from 2009-09-17 06:40:37 to 2009-09-17 13:40:42
Back to CruiseResearch ActivitiesStationsMapUnderway DataData graphs

EquipmentUnitsComments
TimeDGPSUTC
LatitudeDGPSDM.mWGS84
LongitudeDGPSDM.mWGS84
SpeedMeteo Stationm/sRelative wind speed
DirectionMeteo StationdegRelative wind direction
TemperatureMeteo Stationdeg CelciusAir temperature
PressureMeteo StationPaAtmospheric pressure
HumidityMeteo Station%Relative humidity
Missing or incorrect values are displayed as -999
Metereological data collected by the RV Zeeleeuw from 2009-09-17 06:42:19 to 2009-09-17 13:50:49
Time Latitude Longitude Speed Direction Temperature Pressure Humidity
2009-09-17 06:43 51°13.677 2°55.888 0.2 33 14 102030 36
2009-09-17 06:44 51°13.707 2°55.795 4.3 256 14 102020 35
2009-09-17 06:45 51°13.758 2°55.711 3.5 264 14 102020 36
2009-09-17 06:46 51°13.806 2°55.663 4.6 33 14 102030 34
2009-09-17 06:47 51°13.873 2°55.607 6.6 273 14 102030 36
2009-09-17 06:48 51°13.929 2°55.602 5.5 20 14 102030 34
2009-09-17 06:49 51°13.949 2°55.61 4 30 14.1 102020 36
2009-09-17 06:50 51°13.957 2°55.557 4.4 3 14.1 102020 36
2009-09-17 06:51 51°14.036 2°55.479 5.2 -999 14.1 102020 35
2009-09-17 06:52 51°14.171 2°55.359 7.6 3 14.1 102010 35
2009-09-17 06:53 51°14.292 2°55.179 7.1 17 14.1 102000 36
2009-09-17 06:54 51°14.396 2°54.951 9.4 21 14.1 101990 36
2009-09-17 06:55 51°14.518 2°54.749 9.6 2 14.2 102000 36
2009-09-17 06:56 51°14.653 2°54.564 10.2 8 14.3 101990 37
2009-09-17 06:57 51°14.795 2°54.39 11.7 8 14.2 101990 36
2009-09-17 06:58 51°14.938 2°54.223 12.1 7 14.3 101980 36
2009-09-17 06:59 51°15.084 2°54.081 11.5 3 14.4 101980 37
2009-09-17 07:00 51°15.226 2°53.95 10.4 1 14.5 101970 37
2009-09-17 07:01 51°15.375 2°53.815 9.4 6 14.5 101980 37
2009-09-17 07:02 51°15.522 2°53.67 10 3 14.4 101980 36
2009-09-17 07:03 51°15.669 2°53.526 13.3 10 14.5 101970 37
2009-09-17 07:04 51°15.818 2°53.382 13.7 4 14.5 101980 36
2009-09-17 07:05 51°15.975 2°53.277 11.6 2 14.5 101960 37
2009-09-17 07:06 51°16.128 2°53.166 11.1 4 14.5 101970 37
2009-09-17 07:07 51°16.277 2°53.06 10.8 4 14.4 101990 36
2009-09-17 07:08 51°16.43 2°52.951 10.3 7 14.4 101970 36
2009-09-17 07:09 51°16.584 2°52.847 10.6 6 14.5 101980 36
2009-09-17 07:10 51°16.735 2°52.746 14 6 14.6 101990 36
2009-09-17 07:11 51°16.88 2°52.65 11.5 5 14.6 102010 37
2009-09-17 07:12 51°17.031 2°52.551 13.2 2 14.6 101980 37
2009-09-17 07:13 51°17.184 2°52.479 14.1 359 14.5 101970 37
2009-09-17 07:14 51°17.342 2°52.458 16.8 351 14.6 101970 37
2009-09-17 07:15 51°17.498 2°52.458 12.7 353 14.6 101980 37
2009-09-17 07:16 51°17.653 2°52.456 15.1 358 14.5 101970 36
2009-09-17 07:17 51°17.805 2°52.473 16.3 351 14.5 101980 36
2009-09-17 07:18 51°17.953 2°52.496 14.3 355 14.5 101960 36
2009-09-17 07:19 51°18.089 2°52.56 15 346 14.5 101980 36
2009-09-17 07:20 51°18.187 2°52.724 17.2 338 14.6 101990 37
2009-09-17 07:21 51°18.263 2°52.929 14.7 335 14.6 101970 36
2009-09-17 07:22 51°18.343 2°53.133 14.9 337 14.7 101980 37
2009-09-17 07:23 51°18.425 2°53.338 14.6 336 14.7 101990 37
2009-09-17 07:24 51°18.503 2°53.547 15.9 333 14.7 102000 36
2009-09-17 07:25 51°18.582 2°53.754 15.1 339 14.7 101990 37
2009-09-17 07:26 51°18.653 2°53.967 17.5 334 14.6 102000 36
2009-09-17 07:27 51°18.708 2°54.197 16.4 334 14.6 102000 36
2009-09-17 07:28 51°18.761 2°54.427 15.2 333 14.6 102010 36
2009-09-17 07:29 51°18.815 2°54.658 16.2 331 14.7 102000 36
2009-09-17 07:30 51°18.868 2°54.888 16.8 333 14.7 102010 36
2009-09-17 07:31 51°18.921 2°55.115 16.1 332 14.6 101990 36
2009-09-17 07:32 51°18.975 2°55.344 14.1 330 14.6 102000 36
2009-09-17 07:33 51°19.03 2°55.568 14.8 334 14.7 102010 36
2009-09-17 07:34 51°19.088 2°55.796 17.3 331 14.8 102010 35
2009-09-17 07:35 51°19.144 2°56.022 15.9 332 14.7 102000 36
2009-09-17 07:36 51°19.205 2°56.25 16.4 334 14.8 102010 37
2009-09-17 07:37 51°19.263 2°56.477 15.6 333 14.8 102000 36
2009-09-17 07:38 51°19.32 2°56.707 14.3 328 14.7 102010 36
2009-09-17 07:39 51°19.378 2°56.931 14.9 332 14.7 102010 36
2009-09-17 07:40 51°19.436 2°57.157 17.2 333 14.7 101990 35
2009-09-17 07:41 51°19.496 2°57.381 16.5 334 14.7 102000 36
2009-09-17 07:42 51°19.554 2°57.607 16.4 337 14.7 101990 35
2009-09-17 07:43 51°19.613 2°57.833 14.7 334 14.8 101990 36
2009-09-17 07:44 51°19.67 2°58.061 13.5 329 14.8 102020 37
2009-09-17 07:45 51°19.722 2°58.296 15.6 330 14.7 102010 36
2009-09-17 07:46 51°19.773 2°58.531 17.4 335 14.7 102010 36
2009-09-17 07:47 51°19.824 2°58.767 17.3 333 14.8 102020 37
2009-09-17 07:48 51°19.879 2°59.001 14.6 333 14.7 102000 36
2009-09-17 07:49 51°19.939 2°59.232 15.9 334 14.8 102010 37
2009-09-17 07:50 51°19.998 2°59.464 15.9 335 14.8 102020 35
2009-09-17 07:51 51°20.056 2°59.696 16.3 334 14.9 102010 36
2009-09-17 07:52 51°20.115 2°59.926 14.4 333 14.8 101990 37
2009-09-17 07:53 51°20.176 3°0.155 16.7 334 14.7 102000 37
2009-09-17 07:54 51°20.234 3°0.384 16.2 334 14.7 101990 36
2009-09-17 07:55 51°20.294 3°0.617 14.8 333 14.7 101990 35
2009-09-17 07:56 51°20.352 3°0.85 13.9 334 14.7 102000 36
2009-09-17 07:57 51°20.412 3°1.079 17.6 332 14.7 101960 36
2009-09-17 07:58 51°20.47 3°1.313 15.1 333 14.7 102000 35
2009-09-17 07:59 51°20.53 3°1.54 16.7 336 14.7 102010 36
2009-09-17 08:00 51°20.572 3°1.778 16.2 333 14.7 102010 36
2009-09-17 08:01 51°20.606 3°2.027 16.3 332 14.8 101990 36
2009-09-17 08:02 51°20.634 3°2.278 13.6 329 14.8 102010 36
2009-09-17 08:03 51°20.666 3°2.529 15.3 333 14.8 102010 37
2009-09-17 08:04 51°20.697 3°2.779 16.6 328 14.8 102010 36
2009-09-17 08:05 51°20.733 3°3.027 17 331 14.8 102000 37
2009-09-17 08:06 51°20.765 3°3.277 16.3 326 14.7 102010 36
2009-09-17 08:07 51°20.796 3°3.528 17.1 326 14.7 101990 35
2009-09-17 08:08 51°20.828 3°3.777 16.6 327 14.8 102000 36
2009-09-17 08:09 51°20.862 3°4.026 15.5 330 14.7 102010 35
2009-09-17 08:10 51°20.897 3°4.277 16.1 326 14.7 102010 36
2009-09-17 08:11 51°20.928 3°4.529 15.1 326 14.7 102000 36
2009-09-17 08:12 51°20.956 3°4.785 17.9 330 14.8 102020 36
2009-09-17 08:13 51°20.983 3°5.041 15.9 327 14.7 102000 35
2009-09-17 08:14 51°21.01 3°5.296 14.6 328 14.7 102020 36
2009-09-17 08:15 51°21.037 3°5.551 17.2 326 14.6 102000 35
2009-09-17 08:16 51°21.067 3°5.808 16.7 326 14.7 102020 36
2009-09-17 08:17 51°21.098 3°6.064 14 327 14.7 102010 36
2009-09-17 08:18 51°21.126 3°6.321 15 326 14.7 102010 36
2009-09-17 08:19 51°21.146 3°6.578 15.7 327 14.7 102020 36
2009-09-17 08:20 51°21.166 3°6.836 14.7 327 14.8 102010 36
2009-09-17 08:21 51°21.185 3°7.097 14.5 324 14.8 102020 36
2009-09-17 08:22 51°21.203 3°7.359 16.4 326 14.8 101990 36
2009-09-17 08:23 51°21.222 3°7.623 15.5 326 14.8 102030 36
2009-09-17 08:24 51°21.246 3°7.884 15.6 331 14.8 102030 36
2009-09-17 08:25 51°21.267 3°8.148 14.3 330 14.7 102020 36
2009-09-17 08:26 51°21.289 3°8.413 15.8 330 14.7 102020 36
2009-09-17 08:27 51°21.312 3°8.678 16.2 329 14.7 102020 36
2009-09-17 08:28 51°21.334 3°8.946 16.5 326 14.7 102000 36
2009-09-17 08:29 51°21.35 3°9.185 13 326 14.8 102030 36
2009-09-17 08:30 51°21.389 3°9.255 10.6 2 14.7 102010 36
2009-09-17 08:31 51°21.423 3°9.188 10 28 14.7 102070 36
2009-09-17 08:32 51°21.456 3°9.117 9.7 19 14.7 102070 37
2009-09-17 08:33 51°21.489 3°9.065 10.6 19 14.8 102060 38
2009-09-17 08:34 51°21.515 3°9.025 9.3 13 14.7 102080 36
2009-09-17 08:35 51°21.538 3°8.975 10 24 14.7 102070 37
2009-09-17 08:36 51°21.561 3°8.88 9.3 31 14.7 102070 38
2009-09-17 08:37 51°21.569 3°8.758 8.6 31 14.7 102070 36
2009-09-17 08:38 51°21.582 3°8.637 9.4 35 14.6 102070 35
2009-09-17 08:39 51°21.599 3°8.55 10.6 29 14.5 102080 35
2009-09-17 08:40 51°21.626 3°8.478 9.5 22 14.5 102080 35
2009-09-17 08:41 51°21.665 3°8.413 10.9 19 14.7 102070 37
2009-09-17 08:42 51°21.708 3°8.343 9.9 18 14.7 102070 36
2009-09-17 08:43 51°21.75 3°8.264 9.9 27 14.8 102070 36
2009-09-17 08:44 51°21.774 3°8.176 10.4 28 14.8 102080 37
2009-09-17 08:45 51°21.797 3°8.1 10.6 29 14.7 102080 36
2009-09-17 08:46 51°21.825 3°8.034 9.3 22 14.7 102080 34
2009-09-17 08:47 51°21.867 3°7.951 9.8 21 14.7 102090 37
2009-09-17 08:48 51°21.907 3°7.894 10.9 9 14.7 102090 36
2009-09-17 08:49 51°21.949 3°7.846 9.9 9 14.7 102070 36
2009-09-17 08:50 51°21.99 3°7.791 11.5 11 14.8 102070 37
2009-09-17 08:51 51°22.03 3°7.74 10.4 12 14.7 102070 36
2009-09-17 08:52 51°22.072 3°7.692 9.4 12 14.7 102070 36
2009-09-17 08:53 51°22.113 3°7.64 11.4 9 14.7 102070 37
2009-09-17 08:54 51°22.154 3°7.587 12.5 12 14.7 102070 36
2009-09-17 08:55 51°22.198 3°7.536 12.8 12 14.7 102070 36
2009-09-17 08:56 51°22.24 3°7.482 10.4 10 14.7 102080 36
2009-09-17 08:57 51°22.279 3°7.432 9.3 7 14.7 102080 35
2009-09-17 08:58 51°22.32 3°7.383 8.6 3 14.8 102070 36
2009-09-17 08:59 51°22.361 3°7.334 11.1 5 14.9 102070 37
2009-09-17 09:00 51°22.402 3°7.283 12.9 8 14.8 102070 37
2009-09-17 09:01 51°22.441 3°7.228 11.6 8 14.8 102080 36
2009-09-17 09:02 51°22.477 3°7.174 12.1 10 14.8 102060 36
2009-09-17 09:03 51°22.514 3°7.121 12.1 8 14.7 102080 35
2009-09-17 09:04 51°22.554 3°7.069 11.9 9 14.8 102080 36
2009-09-17 09:05 51°22.593 3°7.017 10.9 10 14.7 102080 35
2009-09-17 09:06 51°22.634 3°6.967 9.3 8 14.9 102080 36
2009-09-17 09:07 51°22.671 3°6.913 10.8 7 14.8 102090 35
2009-09-17 09:08 51°22.702 3°6.856 11.2 8 14.7 102080 35
2009-09-17 09:09 51°22.734 3°6.801 12.6 8 14.8 102080 35
2009-09-17 09:10 51°22.769 3°6.75 11.7 6 14.9 102070 37
2009-09-17 09:11 51°22.804 3°6.7 11.5 8 14.8 102070 35
2009-09-17 09:12 51°22.838 3°6.654 10.9 12 14.8 102070 35
2009-09-17 09:13 51°22.871 3°6.608 10.7 7 14.8 102080 35
2009-09-17 09:14 51°22.903 3°6.564 10.8 8 14.8 102090 36
2009-09-17 09:15 51°22.932 3°6.543 11.1 6 14.8 102070 35
2009-09-17 09:16 51°22.937 3°6.53 9.8 8 14.7 102080 35
2009-09-17 09:17 51°22.932 3°6.521 9 7 14.7 102080 34
2009-09-17 09:18 51°22.921 3°6.513 8.4 16 14.8 102080 36
2009-09-17 09:19 51°22.905 3°6.503 10.4 21 14.9 102080 37
2009-09-17 09:20 51°22.912 3°6.427 8.6 28 14.9 102080 35
2009-09-17 09:21 51°22.906 3°6.222 6.2 37 14.9 102060 36
2009-09-17 09:22 51°22.872 3°5.948 3.7 39 14.9 102060 36
2009-09-17 09:23 51°22.821 3°5.67 3.9 37 14.9 102060 37
2009-09-17 09:24 51°22.767 3°5.394 6 39 15 102070 36
2009-09-17 09:25 51°22.743 3°5.116 7.3 27 14.8 102060 35
2009-09-17 09:26 51°22.732 3°4.839 5.5 41 14.9 102060 36
2009-09-17 09:27 51°22.651 3°4.583 4.1 26 14.9 102060 35
2009-09-17 09:28 51°22.54 3°4.355 3.1 30 15.1 102070 36
2009-09-17 09:29 51°22.432 3°4.121 4.8 21 15.3 102070 34
2009-09-17 09:30 51°22.329 3°3.879 3.2 23 15.5 102070 35
2009-09-17 09:31 51°22.234 3°3.635 3 20 15.6 102070 36
2009-09-17 09:32 51°22.136 3°3.39 2.8 19 15.8 102070 34
2009-09-17 09:33 51°22.039 3°3.144 2.5 22 16 102070 33
2009-09-17 09:34 51°21.951 3°2.888 3.2 27 15.9 102070 34
2009-09-17 09:35 51°21.87 3°2.628 3.9 44 15.8 102070 37
2009-09-17 09:36 51°21.792 3°2.365 5.1 25 15.6 102060 37
2009-09-17 09:37 51°21.72 3°2.102 6.6 43 15.3 102070 37
2009-09-17 09:38 51°21.652 3°1.838 5.9 44 15.2 102070 36
2009-09-17 09:39 51°21.588 3°1.577 6.2 41 15.2 102070 38
2009-09-17 09:40 51°21.51 3°1.324 2.9 28 15.1 102070 37
2009-09-17 09:41 51°21.413 3°1.09 5.3 20 15.1 102070 37
2009-09-17 09:42 51°21.314 3°0.859 2.3 28 15.2 102070 36
2009-09-17 09:43 51°21.218 3°0.623 1.9 26 15.5 102060 35
2009-09-17 09:44 51°21.123 3°0.385 4 23 15.5 102070 35
2009-09-17 09:45 51°21.027 3°0.145 3 26 15.4 102060 37
2009-09-17 09:46 51°20.932 2°59.906 2.8 24 15.7 102070 37
2009-09-17 09:47 51°20.839 2°59.667 5.2 26 16.1 102060 36
2009-09-17 09:48 51°20.743 2°59.433 2.6 23 16.3 102060 36
2009-09-17 09:49 51°20.655 2°59.207 2.8 30 16.4 102050 33
2009-09-17 09:50 51°20.533 2°58.886 3.4 28 16.5 102050 35
2009-09-17 09:51 51°20.441 2°58.643 2.4 31 16.2 102050 36
2009-09-17 09:52 51°20.35 2°58.407 4.2 28 15.8 102050 36
2009-09-17 09:53 51°20.258 2°58.168 5.8 28 15.5 102050 35
2009-09-17 09:54 51°20.167 2°57.936 6.6 44 15.3 102060 38
2009-09-17 09:55 51°20.077 2°57.705 4.9 33 15.1 102050 35
2009-09-17 09:56 51°19.984 2°57.474 4.2 41 15.1 102050 37
2009-09-17 09:57 51°19.893 2°57.242 2.8 27 15.2 102050 36
2009-09-17 09:58 51°19.8 2°57.015 2.9 21 15.4 102050 37
2009-09-17 09:59 51°19.711 2°56.787 3.8 29 15.5 102050 38
2009-09-17 10:00 51°19.622 2°56.553 4.5 26 15.7 102050 34
2009-09-17 10:01 51°19.53 2°56.321 4.9 39 15.9 102050 35
2009-09-17 10:02 51°19.442 2°56.09 2.7 20 16 102040 38
2009-09-17 10:03 51°19.356 2°55.858 5.6 45 15.9 102050 36
2009-09-17 10:04 51°19.267 2°55.631 2.8 31 15.8 102050 35
2009-09-17 10:05 51°19.183 2°55.4 4.5 20 15.5 102050 35
2009-09-17 10:06 51°19.098 2°55.176 4.8 39 15.4 102040 35
2009-09-17 10:07 51°19.015 2°54.941 5.3 26 15.3 102040 37
2009-09-17 10:08 51°18.929 2°54.711 3.7 39 15.2 102040 36
2009-09-17 10:09 51°18.844 2°54.483 4.4 25 15.5 102040 38
2009-09-17 10:10 51°18.761 2°54.249 2.4 34 15.4 102040 36
2009-09-17 10:11 51°18.679 2°54.018 4 40 15.7 102050 37
2009-09-17 10:12 51°18.591 2°53.79 3.5 29 15.8 102040 34
2009-09-17 10:13 51°18.508 2°53.561 3.6 22 16 102040 35
2009-09-17 10:14 51°18.426 2°53.328 3.9 25 16.3 102040 33
2009-09-17 10:15 51°18.345 2°53.103 5.1 28 16.5 102040 34
2009-09-17 10:16 51°18.264 2°52.868 4.1 28 16.4 102030 34
2009-09-17 10:17 51°18.183 2°52.635 6.2 37 16.4 102030 36
2009-09-17 10:18 51°18.104 2°52.406 5.2 26 16.5 102030 36
2009-09-17 10:19 51°18.021 2°52.176 4.1 23 16.1 102030 35
2009-09-17 10:20 51°17.93 2°51.955 5.1 37 15.9 102030 36
2009-09-17 10:21 51°17.843 2°51.729 2.7 26 15.9 102020 33
2009-09-17 10:22 51°17.756 2°51.504 2.7 19 15.9 102030 34
2009-09-17 10:23 51°17.667 2°51.284 4.7 23 15.9 102020 33
2009-09-17 10:24 51°17.581 2°51.063 4.9 26 15.7 102020 35
2009-09-17 10:25 51°17.498 2°50.837 4.4 27 15.8 102020 35
2009-09-17 10:26 51°17.412 2°50.615 4.4 21 16 102020 37
2009-09-17 10:27 51°17.329 2°50.397 4.5 26 16.2 102020 34
2009-09-17 10:28 51°17.236 2°50.188 3.4 20 16.3 102020 35
2009-09-17 10:29 51°17.13 2°49.993 4.1 37 16.2 102030 36
2009-09-17 10:30 51°17.022 2°49.801 4.7 21 15.9 102020 35
2009-09-17 10:31 51°16.915 2°49.615 5.3 20 15.8 102020 37
2009-09-17 10:32 51°16.808 2°49.434 2.7 28 15.8 102020 38
2009-09-17 10:33 51°16.706 2°49.252 5.7 29 15.8 102020 36
2009-09-17 10:34 51°16.602 2°49.066 6 25 15.7 102020 37
2009-09-17 10:35 51°16.501 2°48.882 6.9 25 15.5 102030 35
2009-09-17 10:36 51°16.397 2°48.699 4.8 19 15.4 102020 36
2009-09-17 10:37 51°16.301 2°48.509 4.5 23 15.3 102020 36
2009-09-17 10:38 51°16.217 2°48.309 3.3 23 15.6 102020 37
2009-09-17 10:39 51°16.134 2°48.093 3.5 23 16.3 102010 35
2009-09-17 10:40 51°16.051 2°47.887 3.4 19 16.4 102030 36
2009-09-17 10:41 51°15.966 2°47.682 6.1 27 16.5 102020 35
2009-09-17 10:42 51°15.88 2°47.472 3.4 32 16.5 102010 36
2009-09-17 10:43 51°15.792 2°47.262 2.7 21 16.7 102010 36
2009-09-17 10:44 51°15.706 2°47.049 4.3 26 16.6 102020 35
2009-09-17 10:45 51°15.631 2°46.829 4 40 16.6 102020 37
2009-09-17 10:46 51°15.563 2°46.603 6.1 43 16.4 102010 36
2009-09-17 10:47 51°15.494 2°46.38 5 37 16.1 102020 38
2009-09-17 10:48 51°15.422 2°46.157 7.7 19 15.8 102010 36
2009-09-17 10:49 51°15.351 2°45.939 5.8 44 15.8 102020 34
2009-09-17 10:50 51°15.281 2°45.714 3.8 27 15.7 102020 36
2009-09-17 10:51 51°15.209 2°45.492 4.4 24 15.9 102020 36
2009-09-17 10:52 51°15.138 2°45.267 4.3 32 16 102020 36
2009-09-17 10:53 51°15.063 2°45.042 3.7 28 16.6 102020 34
2009-09-17 10:54 51°14.991 2°44.821 5 35 16.4 102020 35
2009-09-17 10:55 51°14.922 2°44.596 5 44 16 102020 36
2009-09-17 10:56 51°14.851 2°44.367 4.8 37 15.7 102010 36
2009-09-17 10:57 51°14.779 2°44.141 5 34 15.6 102010 38
2009-09-17 10:58 51°14.707 2°43.92 5.7 26 15.5 102010 36
2009-09-17 10:59 51°14.638 2°43.695 6.5 39 15.4 102010 39
2009-09-17 11:00 51°14.566 2°43.468 6.4 39 15.2 102010 36
2009-09-17 11:01 51°14.497 2°43.238 5.8 40 15.2 102000 35
2009-09-17 11:02 51°14.425 2°43.004 5.5 30 15.2 102000 37
2009-09-17 11:03 51°14.354 2°42.774 5.8 37 15.2 102010 37
2009-09-17 11:04 51°14.283 2°42.548 4.3 39 15.1 102020 34
2009-09-17 11:05 51°14.211 2°42.324 5.3 25 15.3 102010 38
2009-09-17 11:06 51°14.136 2°42.104 5.2 44 15.3 102010 38
2009-09-17 11:07 51°14.064 2°41.879 5.5 23 15.4 102010 37
2009-09-17 11:08 51°13.992 2°41.656 4.5 31 15.3 102010 36
2009-09-17 11:09 51°13.921 2°41.43 6 23 15.4 102010 38
2009-09-17 11:10 51°13.85 2°41.205 5 40 15.3 102020 37
2009-09-17 11:11 51°13.753 2°41.008 3 23 15.5 102020 38
2009-09-17 11:12 51°13.641 2°40.829 5.1 32 16 102020 36
2009-09-17 11:13 51°13.528 2°40.653 5 32 16.1 102020 35
2009-09-17 11:14 51°13.418 2°40.474 2.9 37 16.1 102020 37
2009-09-17 11:15 51°13.3 2°40.301 4.7 23 16.1 102010 38
2009-09-17 11:16 51°13.181 2°40.129 5.5 23 15.9 102020 35
2009-09-17 11:17 51°13.065 2°39.956 5.6 39 15.8 102010 36
2009-09-17 11:18 51°12.949 2°39.784 5.4 21 15.6 102010 35
2009-09-17 11:19 51°12.836 2°39.611 6.4 34 15.5 102010 36
2009-09-17 11:20 51°12.724 2°39.436 5.6 27 15.6 102010 37
2009-09-17 11:21 51°12.607 2°39.268 3.9 39 15.7 102020 35
2009-09-17 11:22 51°12.492 2°39.096 5.4 40 15.9 102010 36
2009-09-17 11:23 51°12.379 2°38.919 0.8 24 15.8 102010 35
2009-09-17 11:24 51°12.265 2°38.742 5.1 39 15.9 102010 36
2009-09-17 11:25 51°12.148 2°38.571 4.5 35 15.7 102010 35
2009-09-17 11:26 51°12.032 2°38.397 4.3 32 15.7 102010 35
2009-09-17 11:27 51°11.912 2°38.232 4.5 21 15.6 102010 35
2009-09-17 11:28 51°11.79 2°38.07 6.5 33 15.5 102020 36
2009-09-17 11:29 51°11.668 2°37.9 4.5 28 15.4 102020 35
2009-09-17 11:30 51°11.542 2°37.734 4.5 22 15.5 102010 36
2009-09-17 11:31 51°11.416 2°37.568 4.1 36 15.5 102020 37
2009-09-17 11:32 51°11.292 2°37.403 5 22 15.4 102010 37
2009-09-17 11:33 51°11.166 2°37.246 4.7 40 15.4 102020 36
2009-09-17 11:34 51°11.042 2°37.086 4.6 23 15.5 102010 37
2009-09-17 11:35 51°10.921 2°36.916 4.4 35 15.5 102010 36
2009-09-17 11:36 51°10.796 2°36.759 4.2 15 15.4 102010 35
2009-09-17 11:37 51°10.641 2°36.684 7.4 263 15.5 102010 37
2009-09-17 11:38 51°10.477 2°36.676 7.8 263 15.5 102000 36
2009-09-17 11:39 51°10.308 2°36.741 12.4 258 15.6 101990 37
2009-09-17 11:40 51°10.141 2°36.808 13.2 257 15.7 101990 36
2009-09-17 11:41 51°9.969 2°36.858 10.3 259 15.7 101980 37
2009-09-17 11:42 51°9.795 2°36.877 7.1 263 15.7 102000 35
2009-09-17 11:43 51°9.623 2°36.901 6.9 255 15.6 102000 35
2009-09-17 11:44 51°9.47 2°36.931 7 267 15.6 102000 36
2009-09-17 11:45 51°9.405 2°36.961 7.5 20 15.7 102010 37
2009-09-17 11:46 51°9.393 2°36.922 11 33 15.6 102020 36
2009-09-17 11:47 51°9.418 2°36.887 8.9 25 15.5 102010 36
2009-09-17 11:48 51°9.464 2°36.834 9.9 20 15.4 102020 36
2009-09-17 11:49 51°9.508 2°36.789 12.2 23 15.4 102010 37
2009-09-17 11:50 51°9.547 2°36.745 9.2 23 15.3 102010 35
2009-09-17 11:51 51°9.587 2°36.709 10.3 23 15.4 102000 38
2009-09-17 11:53 51°9.639 2°36.674 12.3 19 15.3 102010 35
2009-09-17 11:54 51°9.686 2°36.648 11 18 15.3 102010 35
2009-09-17 11:55 51°9.732 2°36.619 10.7 21 15.3 102010 35
2009-09-17 11:56 51°9.78 2°36.591 10.8 11 15.4 102020 38
2009-09-17 11:57 51°9.827 2°36.56 12.6 13 15.3 102000 35
2009-09-17 11:58 51°9.875 2°36.531 11 8 15.3 102000 36
2009-09-17 11:59 51°9.923 2°36.505 10.5 15 15.3 102000 36
2009-09-17 12:00 51°9.972 2°36.483 9.7 7 15.3 102010 35
2009-09-17 12:01 51°10.025 2°36.473 9.7 2 15.3 102010 34
2009-09-17 12:02 51°10.077 2°36.486 9.5 341 15.3 102000 36
2009-09-17 12:03 51°10.119 2°36.528 11.7 336 15.4 101970 37
2009-09-17 12:04 51°10.163 2°36.573 11.5 337 15.4 101950 37
2009-09-17 12:05 51°10.205 2°36.635 11 330 15.5 101980 36
2009-09-17 12:06 51°10.235 2°36.702 11.1 330 15.5 101970 37
2009-09-17 12:07 51°10.265 2°36.762 9.8 336 15.6 101980 37
2009-09-17 12:08 51°10.296 2°36.824 8.3 324 15.5 101980 37
2009-09-17 12:09 51°10.314 2°36.904 10.6 23 15.5 101970 34
2009-09-17 12:10 51°10.326 2°36.994 10.3 25 15.5 101980 37
2009-09-17 12:11 51°10.332 2°37.085 12.7 28 15.5 101970 36
2009-09-17 12:12 51°10.336 2°37.179 12.9 26 15.5 101960 36
2009-09-17 12:13 51°10.339 2°37.272 12.3 22 15.5 101970 36
2009-09-17 12:14 51°10.342 2°37.36 10.2 27 15.5 101980 35
2009-09-17 12:15 51°10.342 2°37.44 9.6 28 15.5 101980 36
2009-09-17 12:16 51°10.341 2°37.518 11.9 21 15.6 101980 37
2009-09-17 12:17 51°10.342 2°37.596 11.3 29 15.6 101980 35
2009-09-17 12:18 51°10.344 2°37.674 10.9 27 15.5 101970 36
2009-09-17 12:19 51°10.346 2°37.754 11.3 26 15.6 101960 36
2009-09-17 12:20 51°10.344 2°37.832 11.1 25 15.6 101970 36
2009-09-17 12:21 51°10.344 2°37.908 11.1 22 15.5 101960 36
2009-09-17 12:22 51°10.343 2°37.977 11 27 15.5 101960 36
2009-09-17 12:23 51°10.342 2°38.046 13 20 15.6 101960 36
2009-09-17 12:24 51°10.346 2°38.131 12.3 27 15.5 101970 36
2009-09-17 12:25 51°10.344 2°38.222 11.8 243 15.5 101960 36
2009-09-17 12:26 51°10.317 2°38.301 11.6 261 15.5 101970 36
2009-09-17 12:27 51°10.275 2°38.354 8.4 270 15.7 101980 38
2009-09-17 12:28 51°10.23 2°38.384 10.4 28 15.7 101990 37
2009-09-17 12:29 51°10.197 2°38.375 5.9 21 15.5 102000 35
2009-09-17 12:30 51°10.182 2°38.369 6.8 22 15.6 102000 35
2009-09-17 12:31 51°10.17 2°38.372 5.9 26 15.6 102000 36
2009-09-17 12:32 51°10.161 2°38.378 5 22 15.5 102010 35
2009-09-17 12:33 51°10.153 2°38.384 6.1 20 15.6 102000 36
2009-09-17 12:34 51°10.145 2°38.355 9.5 28 15.5 102010 35
2009-09-17 12:35 51°10.181 2°38.311 9.2 14 15.5 102000 37
2009-09-17 12:36 51°10.206 2°38.307 11.5 14 15.5 102010 37
2009-09-17 12:37 51°10.26 2°38.306 11.7 344 15.5 102010 36
2009-09-17 12:38 51°10.329 2°38.438 11.7 325 15.5 101970 36
2009-09-17 12:39 51°10.4 2°38.629 16.1 321 15.6 101980 37
2009-09-17 12:40 51°10.458 2°38.838 13.3 324 15.7 101980 37
2009-09-17 12:41 51°10.517 2°39.04 14.2 322 15.7 101980 35
2009-09-17 12:42 51°10.574 2°39.228 13.9 321 15.7 101970 36
2009-09-17 12:43 51°10.607 2°39.33 10 323 15.7 101980 37
2009-09-17 12:44 51°10.621 2°39.387 9 322 15.8 101980 37
2009-09-17 12:45 51°10.633 2°39.448 9.8 316 15.8 101980 38
2009-09-17 12:46 51°10.663 2°39.598 11 319 15.9 101970 38
2009-09-17 12:47 51°10.719 2°39.845 13.8 321 16 101970 38
2009-09-17 12:48 51°10.785 2°40.136 15.6 323 15.9 101950 38
2009-09-17 12:49 51°10.853 2°40.433 15.3 319 15.9 101960 36
2009-09-17 12:50 51°10.93 2°40.725 15.8 321 15.9 101970 37
2009-09-17 12:51 51°11.008 2°41.02 13.9 321 15.8 101940 36
2009-09-17 12:52 51°11.087 2°41.316 13 321 15.9 101950 38
2009-09-17 12:53 51°11.166 2°41.613 15 323 15.9 101950 37
2009-09-17 12:54 51°11.243 2°41.908 15.5 321 15.9 101930 37
2009-09-17 12:55 51°11.351 2°42.321 14.7 327 15.9 101950 37
2009-09-17 12:56 51°11.429 2°42.611 16.1 307 15.8 101950 36
2009-09-17 12:57 51°11.488 2°42.908 16.5 301 15.8 101940 35
2009-09-17 12:58 51°11.533 2°43.21 14.6 308 15.8 101950 36
2009-09-17 12:59 51°11.575 2°43.516 15.3 306 15.8 101920 36
2009-09-17 13:00 51°11.614 2°43.821 16.3 303 15.8 101940 38
2009-09-17 13:01 51°11.659 2°44.123 15.6 303 15.7 101940 36
2009-09-17 13:02 51°11.71 2°44.427 17.3 303 15.8 101940 35
2009-09-17 13:03 51°11.757 2°44.731 14.7 302 15.8 101930 36
2009-09-17 13:04 51°11.799 2°45.036 16.3 303 15.8 101930 37
2009-09-17 13:05 51°11.839 2°45.341 12.7 303 15.8 101940 36
2009-09-17 13:06 51°11.879 2°45.648 16.5 306 15.8 101930 36
2009-09-17 13:07 51°11.923 2°45.955 15.8 308 15.8 101930 36
2009-09-17 13:08 51°11.967 2°46.26 15.6 302 15.8 101940 37
2009-09-17 13:09 51°12.011 2°46.563 15.6 308 15.9 101940 38
2009-09-17 13:10 51°12.052 2°46.866 16.2 306 15.8 101910 35
2009-09-17 13:11 51°12.095 2°47.166 14.5 310 15.8 101930 38
2009-09-17 13:12 51°12.169 2°47.452 16.4 303 15.9 101950 37
2009-09-17 13:13 51°12.261 2°47.721 16.1 305 15.9 101940 37
2009-09-17 13:14 51°12.36 2°47.986 16 306 15.9 101940 37
2009-09-17 13:15 51°12.451 2°48.259 16.4 303 16 101940 37
2009-09-17 13:16 51°12.535 2°48.538 16.4 305 15.9 101930 36
2009-09-17 13:17 51°12.618 2°48.817 14.2 305 16 101960 38
2009-09-17 13:18 51°12.71 2°49.091 15.8 305 16 101920 37
2009-09-17 13:19 51°12.803 2°49.362 16 309 16.1 101930 37
2009-09-17 13:20 51°12.895 2°49.632 15.8 304 16.1 101930 37
2009-09-17 13:21 51°12.987 2°49.899 15.1 303 16.1 101930 37
2009-09-17 13:22 51°13.081 2°50.17 14.7 305 16.1 101940 37
2009-09-17 13:23 51°13.172 2°50.442 13.7 305 16.1 101940 38
2009-09-17 13:24 51°13.263 2°50.713 15.8 309 16 101940 37
2009-09-17 13:25 51°13.356 2°50.983 17.3 307 16.1 101930 38
2009-09-17 13:26 51°13.447 2°51.252 15.3 306 16 101920 36
2009-09-17 13:27 51°13.538 2°51.518 15.6 305 16.1 101930 37
2009-09-17 13:28 51°13.642 2°51.775 16 327 16.1 101940 37
2009-09-17 13:29 51°13.747 2°52.029 14.8 302 16.1 101930 37
2009-09-17 13:30 51°13.852 2°52.287 15.3 324 16.1 101940 38
2009-09-17 13:31 51°13.951 2°52.547 17.6 302 16.1 101940 37
2009-09-17 13:32 51°14.038 2°52.818 12.6 304 16.1 101920 37
2009-09-17 13:33 51°14.122 2°53.091 17.5 302 16.1 101930 37
2009-09-17 13:34 51°14.207 2°53.358 17.5 301 16.1 101940 36
2009-09-17 13:35 51°14.293 2°53.623 16.8 306 16.1 101930 37
2009-09-17 13:36 51°14.374 2°53.894 14.7 303 16.1 101920 37
2009-09-17 13:37 51°14.418 2°54.186 15.5 308 16.1 101910 36
2009-09-17 13:38 51°14.436 2°54.488 17 309 16.1 101930 37
2009-09-17 13:39 51°14.415 2°54.784 14.6 307 16.1 101930 37
2009-09-17 13:40 51°14.345 2°55.049 12.7 307 16.1 101920 38
2009-09-17 13:41 51°14.242 2°55.274 12.2 306 16.2 101960 37
2009-09-17 13:42 51°14.109 2°55.424 8.3 304 16.2 101970 37
2009-09-17 13:43 51°13.981 2°55.522 6 301 16.2 101980 37
2009-09-17 13:44 51°13.866 2°55.61 5.2 304 16.3 101970 36
2009-09-17 13:45 51°13.759 2°55.711 6.5 303 16.4 101990 35
2009-09-17 13:46 51°13.706 2°55.816 7.3 303 16.4 101980 36
2009-09-17 13:47 51°13.678 2°55.908 7.8 305 16.6 101980 36
2009-09-17 13:48 51°13.667 2°55.949 4.1 305 16.7 101980 35
2009-09-17 13:49 51°13.662 2°55.96 2.8 305 16.8 101970 34
2009-09-17 13:50 51°13.662 2°55.96 5.4 307 17 101970 34